Starlink 35773

operational
NORAD ID: 67042 Int'l Des: 2025-294 Owner: SPXS Country: US Constellation: starlink
LEOCIRCULAR

关于 Starlink 35773

正在加载描述...

实时位置

正在加载3D地球...

即将过境

高度历史

Altitude vs Time

uPlot chart will show altitude changes over time

两行轨道根数

1 67042C 25294N 25346.87756944 .01000700 00000+0 14487-2 0 3460
2 67042 43.0026 182.4968 0009189 282.7291 339.3345 16.03221299 18
Epoch: Dec 12, 2025 • Age: 54 hours

当前状态

高度 260.9 km
速度 7.75 km/s
星下点 -30.12°S, 39.68°W
发射日期 Dec 11, 2025
运行时间 2 days
类型 internet

技术详情

分类 Payload
质量 575.00 kg
干质量 530.00 kg
总质量 575.00 kg
长度 0.30 m
直径 4.10 m
跨度 29.00 m
形状 Box + pan
制造商 SPXS
平台类型 Starlink V2MO
阶段状态 In Orbit
所有者/国家 SPXS/US

大型星座

Loading constellations...